• In Portugal
  • List of Countries
  • For 7 days
  • Water Temperature
  • Satellite Maps
  • Weather Map
  • Weather Widgets
  • user-avatar
    Login

    Hourly Weather Polimonie

    Today, 21 August, Tuesday

    Time Temperature Precipitation Wind Pressure Humidity
    00:00 +18°C° 0 mm 4 mps 744 mmHg 89%
    01:00 +17°C° 0 mm 4 mps 744 mmHg 89%
    02:00 +15°C° 0 mm 4 mps 744 mmHg 90%
    03:00 +15°C° 0 mm 4 mps 744 mmHg 90%
    04:00 +14°C° 0 mm 4 mps 745 mmHg 90%
    05:00 +14°C° 0 mm 4 mps 745 mmHg 90%
    06:00 +15°C° 0 mm 4 mps 745 mmHg 86%
    07:00 +16°C° 0 mm 5 mps 746 mmHg 83%
    08:00 +17°C° 0 mm 5 mps 746 mmHg 77%
    09:00 +19°C° 0.1 mm 5 mps 746 mmHg 72%
    10:00 +19°C° 0.1 mm 5 mps 747 mmHg 66%
    11:00 +20°C° 0.1 mm 5 mps 747 mmHg 61%
    12:00 +21°C° 0.1 mm 5 mps 747 mmHg 60%
    13:00 +21°C° 0.1 mm 5 mps 747 mmHg 58%
    14:00 +21°C° 0.1 mm 5 mps 748 mmHg 57%
    15:00 +21°C° 0 mm 5 mps 748 mmHg 58%
    16:00 +21°C° 0 mm 5 mps 748 mmHg 60%
    17:00 +20°C° 0 mm 5 mps 748 mmHg 61%
    18:00 +19°C° 0 mm 4 mps 748 mmHg 67%
    19:00 +17°C° 0 mm 4 mps 749 mmHg 73%
    20:00 +14°C° 0 mm 3 mps 749 mmHg 79%
    21:00 +13°C° 0 mm 3 mps 750 mmHg 82%
    22:00 +12°C° 0 mm 3 mps 750 mmHg 85%
    23:00 +12°C° 0 mm 2 mps 750 mmHg 88%

    Tomorrow, 22 August, Wednesday

    Time Temperature Precipitation Wind Pressure Humidity
    00:00 +12°C° 0 mm 2 mps 751 mmHg 90%
    01:00 +10°C° 0 mm 2 mps 751 mmHg 91%
    02:00 +10°C° 0 mm 2 mps 752 mmHg 92%
    03:00 +9°C° 0 mm 2 mps 752 mmHg 92%
    04:00 +10°C° 0 mm 1 mps 752 mmHg 93%
    05:00 +10°C° 0 mm 1 mps 752 mmHg 93%
    06:00 +11°C° 0 mm 1 mps 752 mmHg 87%
    07:00 +13°C° 0 mm 1 mps 753 mmHg 81%
    08:00 +14°C° 0 mm 1 mps 753 mmHg 75%
    09:00 +16°C° 0 mm 1 mps 753 mmHg 67%
    10:00 +18°C° 0 mm 1 mps 753 mmHg 60%
    11:00 +19°C° 0 mm 2 mps 753 mmHg 52%
    12:00 +21°C° 0 mm 1 mps 753 mmHg 49%
    13:00 +21°C° 0 mm 1 mps 753 mmHg 46%
    14:00 +22°C° 0 mm 1 mps 752 mmHg 44%
    15:00 +22°C° 0 mm 1 mps 752 mmHg 44%
    16:00 +22°C° 0 mm 1 mps 752 mmHg 45%
    17:00 +22°C° 0 mm 1 mps 752 mmHg 46%
    18:00 +20°C° 0 mm 1 mps 752 mmHg 51%
    19:00 +17°C° 0 mm 2 mps 752 mmHg 57%
    20:00 +15°C° 0 mm 2 mps 751 mmHg 63%
    21:00 +15°C° 0 mm 2 mps 752 mmHg 66%
    22:00 +14°C° 0 mm 2 mps 752 mmHg 68%
    23:00 +12°C° 0 mm 3 mps 752 mmHg 71%

    Day after tomorrow, 23 August, Thursday

    Time Temperature Precipitation Wind Pressure Humidity
    00:00 +12°C° 0 mm 3 mps 751 mmHg 72%
    01:00 +12°C° 0 mm 3 mps 751 mmHg 73%
    02:00 +12°C° 0 mm 3 mps 751 mmHg 74%
    03:00 +12°C° 0 mm 3 mps 751 mmHg 74%
    04:00 +11°C° 0 mm 3 mps 751 mmHg 75%
    05:00 +11°C° 0 mm 3 mps 751 mmHg 76%
    06:00 +12°C° 0 mm 4 mps 750 mmHg 73%
    07:00 +14°C° 0 mm 4 mps 750 mmHg 70%
    08:00 +15°C° 0 mm 4 mps 750 mmHg 67%
    09:00 +18°C° 0 mm 4 mps 750 mmHg 63%
    10:00 +20°C° 0 mm 4 mps 750 mmHg 59%
    11:00 +22°C° 0 mm 4 mps 750 mmHg 55%
    12:00 +23°C° 0 mm 4 mps 749 mmHg 53%
    13:00 +25°C° 0 mm 4 mps 749 mmHg 52%
    14:00 +25°C° 0 mm 4 mps 749 mmHg 50%
    15:00 +25°C° 0 mm 4 mps 748 mmHg 52%
    16:00 +25°C° 0 mm 3 mps 748 mmHg 54%
    17:00 +25°C° 0 mm 3 mps 747 mmHg 56%
    18:00 +22°C° 0 mm 3 mps 747 mmHg 61%
    19:00 +21°C° 0 mm 3 mps 747 mmHg 67%
    20:00 +19°C° 0 mm 3 mps 747 mmHg 72%
    21:00 +19°C° 0 mm 3 mps 747 mmHg 72%
    22:00 +19°C° 0 mm 3 mps 747 mmHg 71%
    23:00 +19°C° 0 mm 4 mps 746 mmHg 71%

    24 August, Friday

    Time Temperature Precipitation Wind Pressure Humidity
    00:00 +18°C° 0 mm 4 mps 746 mmHg 74%
    01:00 +18°C° 0 mm 3 mps 746 mmHg 78%
    02:00 +17°C° 0 mm 3 mps 746 mmHg 81%
    03:00 +17°C° 0 mm 3 mps 745 mmHg 83%
    04:00 +17°C° 0 mm 3 mps 745 mmHg 85%
    05:00 +17°C° 0 mm 3 mps 745 mmHg 87%
    06:00 +18°C° 0 mm 3 mps 744 mmHg 84%
    07:00 +19°C° 0 mm 4 mps 744 mmHg 82%
    08:00 +19°C° 0 mm 4 mps 744 mmHg 79%
    09:00 +21°C° 0 mm 4 mps 744 mmHg 74%
    10:00 +23°C° 0 mm 5 mps 744 mmHg 69%
    11:00 +26°C° 0 mm 5 mps 743 mmHg 63%
    12:00 +26°C° 0 mm 5 mps 743 mmHg 61%
    13:00 +27°C° 0 mm 5 mps 743 mmHg 59%
    14:00 +28°C° 0 mm 5 mps 742 mmHg 57%
    15:00 +28°C° 0.2 mm 5 mps 742 mmHg 60%
    16:00 +28°C° 0.2 mm 4 mps 741 mmHg 62%
    17:00 +28°C° 0.2 mm 4 mps 741 mmHg 64%
    18:00 +26°C° 0.6 mm 4 mps 741 mmHg 69%
    19:00 +25°C° 0.6 mm 4 mps 740 mmHg 73%
    20:00 +23°C° 0.6 mm 4 mps 740 mmHg 78%
    21:00 +22°C° 1.2 mm 4 mps 740 mmHg 81%
    22:00 +21°C° 1.2 mm 5 mps 740 mmHg 85%
    23:00 +21°C° 1.2 mm 5 mps 740 mmHg 88%

    25 August, Saturday

    Time Temperature Precipitation Wind Pressure Humidity
    00:00 +20°C° 0.7 mm 4 mps 740 mmHg 90%
    01:00 +20°C° 0.7 mm 4 mps 740 mmHg 92%
    02:00 +19°C° 0.7 mm 4 mps 740 mmHg 93%
    03:00 +19°C° 0.4 mm 3 mps 740 mmHg 95%
    04:00 +19°C° 0.4 mm 3 mps 739 mmHg 96%
    05:00 +19°C° 0.4 mm 3 mps 739 mmHg 97%
    06:00 +19°C° 0.5 mm 3 mps 740 mmHg 96%
    07:00 +19°C° 0.5 mm 3 mps 740 mmHg 95%
    08:00 +19°C° 0.5 mm 2 mps 740 mmHg 94%
    09:00 +19°C° 0.3 mm 3 mps 741 mmHg 93%
    10:00 +19°C° 0.3 mm 3 mps 741 mmHg 92%
    11:00 +19°C° 0.3 mm 3 mps 741 mmHg 90%
    12:00 +19°C° 0.2 mm 3 mps 742 mmHg 90%
    13:00 +18°C° 0.2 mm 3 mps 742 mmHg 89%
    14:00 +18°C° 0.2 mm 3 mps 742 mmHg 89%
    15:00 +18°C° 0.2 mm 3 mps 742 mmHg 90%
    16:00 +17°C° 0.2 mm 3 mps 743 mmHg 90%
    17:00 +17°C° 0.2 mm 3 mps 743 mmHg 91%
    18:00 +16°C° 0 mm 2 mps 743 mmHg 92%
    19:00 +16°C° 0 mm 2 mps 743 mmHg 93%
    20:00 +15°C° 0 mm 2 mps 744 mmHg 94%
    21:00 +15°C° 0 mm 2 mps 744 mmHg 94%
    22:00 +15°C° 0 mm 2 mps 744 mmHg 94%
    23:00 +14°C° 0 mm 2 mps 744 mmHg 94%

    26 August, Sunday

    Time Temperature Precipitation Wind Pressure Humidity
    00:00 +14°C° 0 mm 2 mps 744 mmHg 94%
    01:00 +14°C° 0 mm 2 mps 744 mmHg 93%
    02:00 +14°C° 0 mm 2 mps 744 mmHg 93%
    03:00 +13°C° 0.1 mm 3 mps 744 mmHg 93%
    04:00 +13°C° 0.1 mm 3 mps 744 mmHg 93%
    05:00 +13°C° 0.1 mm 3 mps 744 mmHg 93%
    06:00 +13°C° 0.4 mm 3 mps 744 mmHg 93%
    07:00 +13°C° 0.4 mm 4 mps 744 mmHg 94%
    08:00 +13°C° 0.4 mm 4 mps 744 mmHg 94%
    09:00 +13°C° 1 mm 4 mps 743 mmHg 94%
    10:00 +13°C° 1 mm 4 mps 743 mmHg 94%
    11:00 +14°C° 1 mm 4 mps 743 mmHg 94%
    12:00 +14°C° 0.9 mm 4 mps 742 mmHg 93%
    13:00 +15°C° 0.9 mm 4 mps 742 mmHg 92%
    14:00 +16°C° 0.9 mm 3 mps 742 mmHg 91%
    15:00 +15°C° 0.6 mm 4 mps 742 mmHg 92%
    16:00 +15°C° 0.6 mm 4 mps 742 mmHg 92%
    17:00 +15°C° 0.6 mm 5 mps 741 mmHg 93%
    18:00 +14°C° 1.7 mm 5 mps 742 mmHg 94%
    19:00 +13°C° 1.7 mm 5 mps 742 mmHg 95%
    20:00 +12°C° 1.7 mm 5 mps 742 mmHg 95%
    21:00 +12°C° 1 mm 5 mps 742 mmHg 95%
    22:00 +10°C° 1 mm 5 mps 743 mmHg 95%
    23:00 +9°C° 1 mm 5 mps 743 mmHg 95%
    Show more